Location: *
(47.2969°N, 10.2930°E)
Time: 11:10:04
(UTC+00:00)

SL-16 R/B - Pass Details

Date: 09 April 2020
Orbit: 842 x 846 km, 71.0° (Epoch: 25 May)

Event Time Altitude Azimuth Distance (km) Brightness Sun altitude
Rises 23:13:18 0° 328° (NNW) 3,415 6.1 -34.7°
Reaches altitude 10° 23:15:51 10° 322° (NW) 2,476 5.2 -34.7°
Enters shadow 23:18:36 27° 305° (NW) 1,576 3.8 -34.7°
